Weather History for Edinburgh Airport, United Kingdom

Change the Weather History Date:

Monday, November 4, 2013

  Actual Average Record
Temperature  
Mean Temperature 39 °F -  
Max Temperature 48 °F 47 °F 59 °F (2003)
Min Temperature 30 °F 36 °F 26 °F (2012)
Degree Days  
Heating Degree Days 26    
Moisture  
Dew Point 34 °F    
Average Humidity 87    
Maximum Humidity 100    
Minimum Humidity 62    
Precipitation  
Precipitation 0.00 in 0.08 in - ()
Sea Level Pressure  
Sea Level Pressure 29.29 in    
Wind  
Wind Speed 6 mph ()    
Max Wind Speed 10 mph    
Max Gust Speed -    
Visibility 6.2 miles    
Events      
Averages and records for this station are not official NWS values.
T = Trace of Precipitation, MM = Missing Value Source: Averaged Metar Reports

Daily Weather History Graph

Daily Weather History Graph

Search for Another Location

Airport:

Trip Planner

Search our weather history database for the weather conditions in past years. The results will help you decide how hot, cold, wet, or windy it might be!

Date:

Astronomy

Nov. 04, 2013 Rise Set
Actual Time 7:26 AM GMT 4:26 PM GMT
Civil Twilight 6:46 AM GMT 5:06 PM GMT
Nautical Twilight 6:02 AM GMT 5:50 PM GMT
Astronomical Twilight 5:19 AM GMT 6:33 PM GMT
Moon 8:31 AM GMT (11/4) 5:06 PM GMT (11/4)
Length of Visible Light 10h 19m
Length of Day
8h 59m
New Moon, 1% of the Moon is Illuminated
Nov 4
New Moon
Nov 10
First Quarter
Nov 17
Full
Nov 25
Last Quarter
Dec 3
New

Hourly Weather History & Observations

Time (GMT) Temp. Windchill Dew Point Humidity Pressure Visibility Wind Dir Wind Speed Gust Speed Precip Events Conditions
12:20 AM 33.8 °F 27.0 °F 32.0 °F 93% 29.21 in - WSW 8.1 mph - N/A   Clear
12:50 AM 33.8 °F 27.7 °F 32.0 °F 93% 29.21 in - WSW 6.9 mph - N/A   Clear
1:20 AM 33.8 °F 28.6 °F 33.8 °F 100% 29.21 in - WSW 5.8 mph - N/A   Clear
1:50 AM 33.8 °F 28.6 °F 33.8 °F 100% 29.21 in 6.2 mi West 5.8 mph - N/A   Unknown
2:20 AM 33.8 °F 27.7 °F 32.0 °F 93% 29.21 in - West 6.9 mph - N/A   Clear
2:50 AM 33.8 °F 29.6 °F 32.0 °F 93% 29.21 in - West 4.6 mph - N/A   Clear
3:20 AM 33.8 °F 27.7 °F 32.0 °F 93% 29.21 in - WSW 6.9 mph - N/A   Clear
3:50 AM 30.2 °F - 30.2 °F 100% 29.21 in - Calm Calm - N/A   Clear
4:20 AM 32.0 °F 26.4 °F 32.0 °F 100% 29.21 in - WSW 5.8 mph - N/A   Clear
4:50 AM 33.8 °F 29.6 °F 32.0 °F 93% 29.21 in - West 4.6 mph - N/A   Clear
5:20 AM 32.0 °F 27.5 °F 32.0 °F 100% 29.21 in - WSW 4.6 mph - N/A   Clear
5:50 AM 32.0 °F 26.4 °F 32.0 °F 100% 29.24 in 6.2 mi WSW 5.8 mph - N/A   Unknown
6:20 AM 33.8 °F 27.7 °F 32.0 °F 93% 29.24 in - WSW 6.9 mph - N/A   Clear
6:50 AM 33.8 °F 27.0 °F 32.0 °F 93% 29.24 in - WSW 8.1 mph - N/A   Clear
7:20 AM 33.8 °F 27.0 °F 32.0 °F 93% 29.24 in - West 8.1 mph - N/A   Clear
7:50 AM 33.8 °F 29.6 °F 32.0 °F 93% 29.24 in - West 4.6 mph - N/A   Clear
8:20 AM 35.6 °F 29.9 °F 33.8 °F 93% 29.27 in - West 6.9 mph - N/A   Clear
8:50 AM 35.6 °F 29.9 °F 33.8 °F 93% 29.27 in - West 6.9 mph - N/A   Clear
9:20 AM 37.4 °F 31.4 °F 35.6 °F 93% 29.30 in - WSW 8.1 mph - N/A   Clear
9:50 AM 41.0 °F 35.8 °F 35.6 °F 81% 29.30 in - West 8.1 mph - N/A   Clear
10:20 AM 42.8 °F 38.0 °F 37.4 °F 81% 29.30 in - WSW 8.1 mph - N/A   Clear
10:50 AM 44.6 °F 40.7 °F 37.4 °F 76% 29.30 in - WSW 6.9 mph - N/A   Clear
11:20 AM 46.4 °F 42.9 °F 37.4 °F 71% 29.30 in - West 6.9 mph - N/A   Clear
11:50 AM 46.4 °F 42.9 °F 37.4 °F 71% 29.30 in - West 6.9 mph - N/A   Clear
12:20 PM 48.2 °F - 35.6 °F 62% 29.30 in - West 6.9 mph - N/A   Clear
12:50 PM 48.2 °F - 37.4 °F 66% 29.30 in - West 8.1 mph - N/A   Clear
1:20 PM 48.2 °F - 35.6 °F 62% 29.33 in - West 9.2 mph - N/A   Clear
1:50 PM 48.2 °F - 37.4 °F 66% 29.33 in 6.2 mi West 10.4 mph - N/A   Partly Cloudy
2:20 PM 48.2 °F - 37.4 °F 66% 29.33 in 6.2 mi West 10.4 mph - N/A   Partly Cloudy
2:50 PM 48.2 °F - 37.4 °F 66% 29.33 in 6.2 mi West 10.4 mph - N/A   Partly Cloudy
3:20 PM 46.4 °F 42.9 °F 37.4 °F 71% 29.33 in - West 6.9 mph - N/A   Clear
3:50 PM 44.6 °F 40.7 °F 35.6 °F 71% 29.33 in - West 6.9 mph - N/A   Clear
4:20 PM 42.8 °F 39.3 °F 35.6 °F 76% 29.33 in 6.2 mi West 5.8 mph - N/A   Scattered Clouds
4:50 PM 41.0 °F 38.0 °F 33.8 °F 76% 29.33 in 6.2 mi WSW 4.6 mph - N/A   Scattered Clouds
5:20 PM 35.6 °F 29.9 °F 32.0 °F 87% 29.33 in 6.2 mi WSW 6.9 mph - N/A   Scattered Clouds
5:50 PM 39.2 °F 37.0 °F 35.6 °F 87% 29.36 in 6.2 mi West 3.5 mph - N/A   Scattered Clouds
6:20 PM 39.2 °F 35.9 °F 33.8 °F 81% 29.36 in 6.2 mi West 4.6 mph - N/A   Scattered Clouds
6:50 PM 35.6 °F 31.7 °F 32.0 °F 87% 29.36 in 6.2 mi WNW 4.6 mph - N/A   Partly Cloudy
7:20 PM 33.8 °F 30.8 °F 32.0 °F 93% 29.36 in - West 3.5 mph - N/A   Clear
7:50 PM 33.8 °F - 32.0 °F 93% 29.36 in - Calm Calm - N/A   Clear
8:20 PM 33.8 °F 29.6 °F 32.0 °F 93% 29.36 in - WSW 4.6 mph - N/A   Clear
8:50 PM 35.6 °F 31.7 °F 33.8 °F 93% 29.36 in 6.2 mi West 4.6 mph - N/A   Scattered Clouds
9:20 PM 32.0 °F - 30.2 °F 93% 29.36 in 6.2 mi Calm Calm - N/A   Partly Cloudy
9:50 PM 32.0 °F - 30.2 °F 93% 29.33 in 6.2 mi Calm Calm - N/A   Partly Cloudy
10:20 PM 30.2 °F 26.7 °F 30.2 °F 100% 29.33 in 6.2 mi WSW 3.5 mph - N/A   Partly Cloudy
10:50 PM 30.2 °F - 30.2 °F 100% 29.33 in - Calm Calm - N/A   Clear
11:20 PM 30.2 °F 26.7 °F 30.2 °F 100% 29.33 in 6.2 mi SW 3.5 mph - N/A   Partly Cloudy
11:50 PM 32.0 °F 28.7 °F 30.2 °F 93% 29.33 in - WSW 3.5 mph - N/A   Clear